This is the latest recevied weather packets stored in our database for station/object HP3ICC-14. If no packets are shown the sender has not sent any weather packets the latest 1 day(s).
| Time | Temp. | Humidity | Pressure | Rain* | Wind** | Luminosity | Snow |
|---|---|---|---|---|---|---|---|
| 1778034250 | 28.33° C | 85% | 1010 hPa | 0 mm | - | - | - |
| 1778034190 | 28.33° C | 85% | 1010 hPa | 0 mm | - | - | - |
| 1778031849 | 23.33° C | 82% | 1010 hPa | 0 mm | - | - | - |
| 1778031789 | 23.33° C | 82% | 1010 hPa | 0 mm | - | - | - |
| 1778030588 | 23.89° C | 82% | 1009 hPa | 0 mm | - | - | - |
| 1778029388 | 24.44° C | 82% | 1009 hPa | 0 mm | - | - | - |
| 1778028248 | 25° C | 82% | 1009 hPa | 0 mm | - | - | - |
| 1778027047 | 25.56° C | 82% | 1008 hPa | 0.25 mm | - | - | - |
| 1778026987 | 25.56° C | 82% | 1008 hPa | 0.25 mm | - | - | - |
| 1778023446 | 27.22° C | 82% | 1008 hPa | 0 mm | - | - | - |
| 1778022249 | 27.78° C | 82% | 1008 hPa | 0 mm | - | - | - |
| 1778021044 | 28.33° C | 82% | 1008 hPa | 0 mm | - | - | - |
| 1778018643 | 26.67° C | 66% | 1007 hPa | 0 mm | - | - | - |
| 1778016242 | 27.78° C | 66% | 1007 hPa | 0 mm | - | - | - |
| 1778012640 | 29.44° C | 66% | 1007 hPa | 2.29 mm | - | - | - |
| 1778012580 | 29.44° C | 66% | 1007 hPa | 2.29 mm | - | - | - |
| 1778010239 | 30.56° C | 66% | 1007 hPa | 1.27 mm | - | - | - |
| 1778010179 | 30.56° C | 66% | 1007 hPa | 1.27 mm | - | - | - |
| 1778007838 | 31.67° C | 66% | 1008 hPa | 0 mm | - | - | - |
| 1778007778 | 31.67° C | 66% | 1008 hPa | 0 mm | - | - | - |
| 1778005437 | 30.56° C | 59% | 1009 hPa | 0 mm | - | - | - |
| 1778005377 | 30.56° C | 59% | 1009 hPa | 0 mm | - | - | - |
| 1778001835 | 32.22° C | 59% | 1010 hPa | 0 mm | - | - | - |
| 1777996973 | 34.44° C | 59% | 1011 hPa | 0 mm | - | - | - |
* Rain latest hour (hover to see other rain measurements)
** Current wind speed in m/s (hover to see current wind gust speed)